IUS R/B(2), 26883

Orbit data source: Space-Track

IUS R/B(2), 26883 is space debris in GEO originally from a launch on Mon, 06 Aug 2001 UTC launched from the Air Force Eastern Test Range (AFETR). Debris objects in space refer to the collection of defunct objects orbiting the Earth. Examples of debris include non-operational satellites, rocket bodies, and fragments generated from explosions, collisions, or faulty payload assembly.

Loading next visibility...
Identifier
26883, 2001-033D
Orbit
GEO
Country
Flag of USUS
Related business
Manufacturer
PW CSD
Mission
Orbus 6E) (Titan IVB IUS)"
Bus & Motor
ORBUS 6, ORBUS 6
Mass
1,079 kg wet, 1,079 kg dry
Launch date (UTC)
2001-08-06 (24 years ago)
Launch vehicle
Unknown
Launch site
Air Force Eastern Test Range (AFETR)
Object type
Payload
Rocket body
Debris
Shape & HBR
Cyl, Unknown HBR
Radar Cross Section
8.086 m²

Expand to show TLE details & history
Last TLE update: 23 hours ago

TLE from 23 hours ago
0 IUS R/B(2)
1 26883U 01033D   25260.45802489  .00000087  00000-0  00000-0 0  9994
2 26883  12.6565  18.5948 0005567  14.3183 345.7328  0.99893225 23062
Epoch: 2025-09-17T10:59Z
TLE epoch observation values (Epoch: 2025-09-17T10:59:33.35Z)
Latitude
Longitude
-142.90353°
Altitude
35,869.759 km
Speed
3.072 km/s
True Right ascension
01h 14m 28s
True Declination
0° 00' 00"
Sunlit
Object was in daylight at epoch
Visualization orbit readout
Latitude
Unknown
Longitude
Unknown
Altitude
Unknown
Speed
Unknown
Apparent Right ascension
Unknown
Apparent Declination
Unknown
Sunlit
N/A
Visualization observer readout
Local Sidereal Time
02:57:39
Azimuth
Unknown
Elevation
Unknown
Doppler factor
Unknown
Orbital elements
Apogee altitude
35,917.58 km
Perigee altitude
35,870.514 km
Semi-major axis
42,272.184 km
Eccentricity
0.00056
Inclination
12.6565°
RAAN
18.5948°
Arg. of periapsis
14.3183°
True anomaly
345.71707°
Mean anomaly
345.7328°
Eccentric anomaly
345.72494°
Mean motion
0.24972 °/min
Orbital period
1,441.59 mins
BSTAR
0
Loading maneuver chart data...
Computing Atmospheric mass density...
Loading historical data...
Loading historical data...
Loading historical data...
Loading historical data...
Loading historical data...
Loading historical data...
Loading historical data...
Other satellites on launch #33 in the year 2001 (2001-08-06 UTC)

Documentation

Showing up to 5 results
|